STARLINK-34725 (64843 NORAD) Tracking and Keplerian Element Data

This shows tracking and keplerian element data for the satellite.

Feedback or suggestion? Click here.




ElementValue
Catalog64843
NameSTARLINK-34725
Epoch Orbit2343
Epoch Day354.05887029
Epoch Year2025
RAAN206.9986
Inclination97.6028
Eccentricity0.000263
Argument of Perigee84.2851
Mean Anonmoly275.8675
Mean Motion15.05664311
Decay Rate6.432E-05
L11 64843U 25152B 25354.05887029 .00006432 00000+0 44936-3 0 9991
L22 64843 97.6028 206.9986 0002630 84.2851 275.8675 15.05664311 23432



Live tracking and technical data element details for STARLINK-34725 (NORAD 64843). STARLINK-34725 can be tracked NOW for your location showing map with azimuth and elevation plus other details from your city location.







IsCatalogInMostPopularTable: catalog: 64843, numindb: 4
Update: records affected: 1



GetName: 64843 STARLINK-34725

Hit Count: updated at: Tue, 10 Feb 2026 02:54:02 GMT